Weather History for KPGA - August, 2012

Change the Weather History Date:

Saturday, August 25, 2012

  Actual Average Record
Temperature  
Mean Temperature 82 °F -  
Max Temperature 95 °F 91 °F 99 °F (1985)
Min Temperature 69 °F 66 °F 54 °F (1968)
Cooling Degree Days 17    
Growing Degree Days 32 (Base 50)    
Moisture  
Dew Point 49 °F    
Average Humidity 32    
Maximum Humidity 51    
Minimum Humidity 12    
Precipitation  
Precipitation 0.00 in - - ()
Sea Level Pressure  
Sea Level Pressure 29.78 in    
Wind  
Wind Speed 4 mph (West)    
Max Wind Speed 8 mph    
Max Gust Speed -    
Visibility 10 miles    
Events      
Averages and records for this station are not official NWS values.
T = Trace of Precipitation, MM = Missing Value Source: NWS Daily Summary

Daily Weather History Graph

Daily Weather History Graph

Search for Another Location

Airport or City:

Trip Planner

Search our weather history database for the weather conditions in past years. The results will help you decide how hot, cold, wet, or windy it might be!

Date:

Astronomy

Aug. 25, 2012 Rise Set
Actual Time 5:51 AM MST 7:03 PM MST
Civil Twilight 5:24 AM MST 7:30 PM MST
Nautical Twilight 4:52 AM MST 8:02 PM MST
Astronomical Twilight 4:19 AM MST 8:35 PM MST
Moon 2:35 PM MST (8/25) No Moon Set
Length of Visible Light 14h 05m
Length of Day
13h 11m
Waxing Gibbous, 64% of the Moon is Illuminated
Aug 25
Waxing Gibbous
Aug 31
Full
Sep 8
Last Quarter
Sep 15
New
Sep 22
First Quarter

Hourly Weather History & Observations

Time (MST) Temp. Heat Index Dew Point Humidity Pressure Visibility Wind Dir Wind Speed Gust Speed Precip Events Conditions
12:53 AM 73.9 °F - 50.0 °F 43% 29.79 in 10.0 mi West 4.6 mph - N/A   Clear
1:53 AM 73.9 °F - 48.9 °F 41% 29.77 in 10.0 mi SW 3.5 mph - N/A   Clear
2:53 AM 73.0 °F - 51.1 °F 46% 29.78 in 10.0 mi Calm Calm - N/A   Clear
3:53 AM 71.1 °F - 52.0 °F 51% 29.78 in 10.0 mi Calm Calm - N/A   Clear
4:53 AM 70.0 °F - 50.0 °F 49% 29.79 in 10.0 mi SE 3.5 mph - N/A   Clear
5:53 AM 70.0 °F - 51.1 °F 51% 29.81 in 10.0 mi SE 5.8 mph - N/A   Clear
6:53 AM 72.0 °F - 51.1 °F 48% 29.83 in 10.0 mi ESE 3.5 mph - N/A   Clear
7:53 AM 75.0 °F - 52.0 °F 44% 29.84 in 10.0 mi Calm Calm - N/A   Clear
8:53 AM 78.1 °F - 53.1 °F 42% 29.83 in 10.0 mi Variable 3.5 mph - N/A   Clear
9:53 AM 82.0 °F 81.2 °F 53.1 °F 37% 29.83 in 10.0 mi Variable 5.8 mph - N/A   Clear
10:53 AM 84.0 °F 82.6 °F 54.0 °F 35% 29.82 in 10.0 mi North 5.8 mph - N/A   Clear
11:53 AM 86.0 °F - 52.0 °F 31% 29.81 in 10.0 mi NNW 4.6 mph - N/A   Clear
12:53 PM 88.0 °F - 48.9 °F 26% 29.77 in 10.0 mi Calm Calm - N/A   Clear
1:53 PM 91.9 °F - 46.9 °F 21% 29.75 in 10.0 mi NW 4.6 mph - N/A   Clear
2:53 PM 95.0 °F - 44.1 °F 17% 29.71 in 10.0 mi NNE 8.1 mph - N/A   Clear
3:53 PM 93.9 °F - 45.0 °F 18% 29.71 in 10.0 mi Variable 5.8 mph - N/A   Clear
4:53 PM 91.0 °F - 45.0 °F 20% 29.72 in 10.0 mi WSW 6.9 mph - N/A   Clear
5:53 PM 90.0 °F - 42.1 °F 19% 29.73 in 10.0 mi SW 6.9 mph - N/A   Partly Cloudy
6:53 PM 89.1 °F - 42.1 °F 19% 29.73 in 10.0 mi SW 4.6 mph - N/A   Clear
7:53 PM 86.0 °F - 46.9 °F 26% 29.75 in 10.0 mi NW 4.6 mph - N/A   Clear
8:53 PM 84.0 °F - 48.0 °F 28% 29.76 in 10.0 mi West 4.6 mph - N/A   Clear
9:53 PM 82.0 °F - 46.9 °F 29% 29.77 in 10.0 mi West 4.6 mph - N/A   Clear
10:53 PM 82.0 °F - 46.9 °F 29% 29.77 in 10.0 mi West 3.5 mph - N/A   Clear
11:53 PM 79.0 °F - 46.9 °F 32% 29.78 in 10.0 mi WSW 3.5 mph - N/A   Clear